Regional Weather Roundup
Issued by NWS

Home | Current Version | Previous Version | Graphics & Text | Print | Product List | Glossary On
Versions: 1 2 3 4 5 6 7 8 9 10 11 12 13 14 15 16 17 18 19 20 21 22 23 24 25 26 27 28 29 30 31 32 33 34 35 36 37 38 39 40 41 42 43 44 45 46 47 48 49 50
043
ASUS43 KMPX 221510
RWRMN
WEATHER ROUNDUP FOR MINNESOTA
NATIONAL WEATHER SERVICE TWIN CITIES/CHANHASSEN MN
900 AM CST MON JAN 22 2018


NOTE: "FAIR" INDICATES FEW OR NO CLOUDS BELOW 12,000 FEET WITH NO
SIGNIFICANT WEATHER AND/OR OBSTRUCTIONS TO VISIBILITY. N/A MEANS
CURRENT SKY AND/OR WEATHER CONDITIONS ARE NOT AVAILABLE.

MNZ060>063-068>070-221600-
   Twin Cities Metro

CITY           SKY/WX    TMP DP  RH WIND       PRES   REMARKS
TWIN CITIES    CLOUDY    31  28  89 N20       29.76F WCI  19
ST PAUL        CLOUDY    32  28  85 N16G24    29.78F WCI  21
CRYSTAL        CLOUDY    31  24  75 NE21G28   29.77F WCI  18
BLAINE         CLOUDY    32  28  86 NE20G26   29.78F WCI  20
LAKEVILLE      LGT SNOW  28  28 100 NE14G21   29.73S VSB 1   WCI  17
EDEN PRAIRIE   LGT SNOW  32  27  81 N16G23    29.74F WCI  21
SOUTH ST PAUL  PTSUNNY   33  27  81 NE13G18   29.76S WCI  23
LAKE ELMO      CLOUDY    32  28  86 N14G21    29.77F WCI  22
$$
MNZ001>005-007-008-013>017-022>024-027-028-221600-
   Northwest Minnesota

CITY           SKY/WX    TMP DP  RH WIND       PRES   REMARKS
BEMIDJI        CLOUDY    25  24  96 NE10      30.00F WCI  15
HALLOCK        CLOUDY    25  21  86 NE6       30.11R WCI  18
ROSEAU         CLOUDY    23  18  80 E7        30.11R WCI  15
WARROAD        CLOUDY    21  18  86 NE7       30.12R WCI  13
CROOKSTON      CLOUDY    25  21  86 N8        30.08S WCI  16
FOSSTON        CLOUDY    23  21  93 NE10      30.02F WCI  12
DETROIT LAKES  CLOUDY    27  27 100 NE10      29.96F WCI  17
MOORHEAD       CLOUDY    27  23  86 N10       30.02S WCI  17
PARK RAPIDS    CLOUDY    26  23  88 NE14G22   29.94F WCI  14
MAHNOMEN       CLOUDY    26  23  91 NE14      30.00S WCI  14
$$
MNZ006-009>011-018-025>026-221600-
   North Central Minnesota

CITY           SKY/WX    TMP DP  RH WIND       PRES   REMARKS
BAUDETTE       CLOUDY    21  19  92 NE6       30.08S WCI  13
FLAG ISLAND    CLOUDY    18  16  93 NE7       30.11R WCI   8
INTL FALLS     CLOUDY    19  16  88 NE6       30.09S WCI  11
WASKISH        CLOUDY    21  21 100 N5        30.05F WCI  15
BIG FORK       CLOUDY    23  21  93 NE5       30.02F WCI  17
LONGVILLE      CLOUDY    27  21  80 NE6       29.97F WCI  20
GRAND RAPIDS   CLOUDY    26  22  84 VRB6      30.00F WCI  19
CRANE LAKE     CLOUDY    16  12  86 N3        30.10S
ORR            CLOUDY    18  16  93 CALM      30.02F
COOK           CLOUDY    19  18  93 NE5       30.04S WCI  13
WALKER         CLOUDY    26  23  90 NE9       29.98S WCI  16
$$
MNZ012-019>021-037-221600-
   Northeast Minnesota

CITY           SKY/WX    TMP DP  RH WIND       PRES   REMARKS
DULUTH         LGT SNOW  23  22  96 E17G25    29.95F VSB 3/4 WCI   9
HIBBING        CLOUDY    23  21  92 NE9       30.00R WCI  13
EVELETH        CLOUDY    22  19  87 NE9       30.01F WCI  12
DULUTH HARBOR  CLOUDY    28  27  93 NE25G33   29.99F WCI  14
TWO HARBORS    CLOUDY    25  19  80 NE13G18   29.99S HAZE    WCI  13
GRAND MARAIS     N/A     22  15  75 NE8       30.08F WCI  12
G MARAIS ARPRT CLOUDY    16  10  79 N10       30.00F WCI   3
$$
MNZ029>031-032-039>041-046>048-054>057-064-221600-
   West Central Minnesota

CITY           SKY/WX    TMP DP  RH WIND       PRES   REMARKS
FERGUS FALLS   CLOUDY    25  25 100 NE9       29.95S WCI  15
WHEATON        CLOUDY    27  23  86 N13       29.96F WCI  16
MORRIS         CLOUDY    27  27 100 N13G20    29.89R WCI  16
ALEXANDRIA     CLOUDY    27  24  89 NE23G30   29.89S WCI  12
ELBOW LAKE     CLOUDY    25  24  96 NE18G24   29.92F WCI  12
WADENA         CLOUDY    25  25 100 NE13G23   29.92F WCI  13
GLENWOOD       CLOUDY    27  25  93 N22G29    29.86S WCI  12
APPLETON       CLOUDY    28  25  86 N18       29.87F WCI  16
BENSON         CLOUDY    28  27  93 NE16G23   29.88S WCI  17
ORTONVILLE     CLOUDY    25  23  93 N24       29.89S WCI   9
MADISON        CLOUDY    28  28 100 N22G28    29.87F WCI  15
WILLMAR        CLOUDY    28  25  86 NE25G31   29.84S WCI  14
$$
MNZ033>034-036-042>043-049>051-058-059-221600-
   Central Minnesota

CITY           SKY/WX    TMP DP  RH WIND       PRES   REMARKS
ST CLOUD       CLOUDY    29  25  85 NE13G23   29.84F WCI  19
SAUK CENTRE      N/A     27  24  88 N18G26    29.88R WCI  14
PAYNESVILLE    CLOUDY    28  27  93 N17G29    29.84S WCI  16
AITKIN         CLOUDY    25  21  86 NE10G16   29.94S WCI  15
PINE RIVER     CLOUDY    25  21  86 NE14      29.98F WCI  13
BRAINERD       CLOUDY    26  22  84 NE15      29.94F WCI  14
STAPLES        CLOUDY    25  23  93 NE12G18   29.93S WCI  14
LONG PRAIRIE   CLOUDY    27  23  86 N14G24    29.89S WCI  15
LITTLE FALLS   CLOUDY    28  21  74 NE7G20    29.90S WCI  21
LITCHFIELD     CLOUDY    30  28  93 N16G25    29.81S WCI  19
BUFFALO        CLOUDY    30  26  84 N16G25    29.81S WCI  18
MAPLE LAKE     CLOUDY    31  28  88 MISG      29.82S
HUTCHINSON     CLOUDY    31  28  88 N16G31    29.78R WCI  20
$$
MNZ037-044-045-052-053-221600-
   East Central Minnesota

CITY           SKY/WX    TMP DP  RH WIND       PRES   REMARKS
PRINCETON      CLOUDY    30  25  80 N15G24    29.84F WCI  19
MORA           CLOUDY    28  23  80 NE6G22    29.87F WCI  22
CAMBRIDGE      CLOUDY    30  23  74 N14G23    29.84F WCI  20
RUSH CITY      CLOUDY    29  25  84 NE14G24   29.85F WCI  18
MOOSE LAKE     CLOUDY    28  25  86 NE17G24   29.90F WCI  16
HINCKLEY       CLOUDY    30  27  86 N16       29.87F WCI  19
CLOQUET        CLOUDY    25  21  86 NE15G22   29.94F FOG     WCI  12
MCGREGOR       CLOUDY    27  23  86 NE13      29.95F WCI  16
$$
MNZ071>073-080-081-089-090-097-098-221600-
   Southwest Minnesota

CITY           SKY/WX    TMP DP  RH WIND       PRES   REMARKS
MONTEVIDEO     CLOUDY    28  27  93 NE21G28   29.84F WCI  15
GRANITE FALLS  CLOUDY    31  28  86 N16G26    29.82F WCI  20
CANBY          CLOUDY    27  26  96 N23G29    29.86S FOG     WCI  12
MARSHALL       CLOUDY    27  26  96 N24G30    29.78F WCI  12
REDWOOD FALLS  CLOUDY    30  27  88 N15G30    29.78R WCI  19
OLIVIA         CLOUDY    30  28  93 N24G31    29.78S WCI  16
PIPESTONE      CLOUDY    25  21  86 NE25G39   29.70S WCI   9
WINDOM         CLOUDY    28  18  64 N31G38    29.65F WCI  12
WORTHINGTON    HVY SNOW  28  27  96 N30G38    29.62S VSB 1/4 WCI  12
JACKSON        CLOUDY    30  28  93 N36G44    29.60S VSB 1/2 WCI  14
TRACY          CLOUDY    29  29 100 N23       29.75R WCI  16
SLAYTON        CLOUDY    27  26  96 N28G38    29.70S WCI  11
$$
MNZ065>067-074>077-082>085-091>093-221600-
   South Central Minnesota

CITY           SKY/WX    TMP DP  RH WIND       PRES   REMARKS
MANKATO        SNOW      31  29  92 N24G36    29.67S VSB 1/2 WCI  17
NEW ULM        LGT SNOW  28  27  93 N16G24    29.72F VSB 3/4 WCI  17
ST JAMES       SNOW      30  28  93 N29G35    29.68F VSB 1/2 WCI  15
FAIRMONT       SNOW      32  31  96 N25G36    29.57S VSB 1/2 WCI  19
GLENCOE        CLOUDY    32  28  86 N10G21    29.76S WCI  24
FARIBAULT      SNOW      30  30 100 N20G25    29.67F VSB 1/2 WCI  18
OWATONNA       CLOUDY    32  30  93 N23G31    29.62F WCI  19
WASECA         SNOW      32  30  93 N26G33    29.63S VSB 1/2 WCI  18
ALBERT LEA     LGT SNOW  34  32  93 NE28G36   29.53F VSB 3/4 WCI  20
$$
MNZ078>079-086>088-094>096-221600-
   Southeast Minnesota

CITY           SKY/WX    TMP DP  RH WIND       PRES   REMARKS
ROCHESTER      MIX PCPN  32  32 100 NE25G37   29.59F FOG     WCI  19
RED WING       LGT SNOW  36  28  75 NE9G21    29.71F
STANTON        LGT SNOW  32  31  93 NE23      29.68F VSB 3/4 WCI  20
DODGE CENTER   SNOW      32  30  93 NE18G28   29.60F VSB 1/2 WCI  20
WINONA         LGT SNOW  34  32  93 CALM      29.65F
AUSTIN         MIX PCPN  34  30  86 NE18G31   29.55F WCI  23
PRESTON        LGT RAIN  33  32  96 NE21      29.56F WCI  20
$$
ABBREVIATIONS USED IN REMARKS
   TC - TEMPERATURES IN CELSIUS
  WCI - WIND CHILL INDEX
   HX - HEAT INDEX
  VSB - VISIBILITY
$$




USA.gov is the U.S. government's official web portal to all federal, state and local government web resources and services.